Погода Богородское

Погода Богородское : погода сейчас, прогноз погоды и архив. Всё, что Вы хотите узнать о погоде Богородское!

Поиск расширенной информации на нашем сайте:

Другие новости

Новости СМИ2

Главная страница сайта

Новости сайта

03.07.2017

Напоминаем, что на нашем специализированном сайте Метеоцентр.Азия вы можете получить высокодетализированные автоматические прогнозы погоды по пунктам России, СНГ и мира в авиационном формате (включающие направление и скорость ветра, видимость, явления погоды, количество и форму облачности, нижнюю и верхнюю границу облачности).


Погода Богородское - сегодня

Время (UTC), дата Ветер
(°,м/с) 
Видим.   Явления Облачность Т
(°С)
Тd
(°С)
f(%) Тe
(°С)
Pmin
(гПа)
dP
(гПа)
Po
(мм)
O2
(г/м3)
Тmin Tmax R s Состояние
почвы
03 20.08.17 220 (ЮЗ) н/о    н/о 
+21.4 +17.6 79 +35  1007.2  -1.6  752  277           
06 20.08.17 230 (ЮЗ) 20000 м    10/10 600 м кучево-дожд. 
[Cb cap]
+23.3 +18.7 75 +39  1005.4  -1.8  751  274           
09 20.08.17 360 (С) 7-12{13}  20000 м  в посл. час ливневой дождь  10/10 600 м кучево-дожд. 
[Cb cap]
+18.4 +16 86 +28  1007.2  1.7  752  281    +23.5  10     
12 20.08.17 010 (С) 3{13}  20000 м  {ливн. осадки}  10/10 600 м кучево-дожд. 
[Cb cap]
+17.2 +14.4 84 +26  1010  2.8  754  283           
15 20.08.17 030 (СВ) 20000 м    3/3 600 м 
[Sc]
+15.9 +13 83 +22  1011.2  1.1  755  285           
18 20.08.17 130 (ЮВ) 20000 м    1/1 600 м 
[Sc]
+12.6 +11.6 94 +17  1011.1  -0.2  755  289           
21 20.08.17 120 (ЮВ) 20000 м    8/3 600 м средняя 
[Sc|Ac trans]
+12.8 +11.6 92 +16  1011.6  0.5  756  289  +11.3        влажная 
00 21.08.17 160 (Ю) 20000 м    8/4 600 м кучево-дожд., средняя, верхняя 
[Cb cap|Ac trans|Ci fib]
+17.4 +13.2 76 +24  1011.5  0.1  756  284           
03 21.08.17 170 (Ю) 20000 м    8/4 600 м кучево-дожд., средняя, верхняя 
[Cb cap|Ac trans|Ci fib]
+20.9 +12.3 58 +25  1010.1  -1.4  755  280           
06 21.08.17 160 (Ю) 20000 м    8/3 600 м кучево-дожд., средняя, верхняя 
[Cb cap|Ac lent|Ci fib]
+23.1 +10.5 45 +25  1008.6  -1.5  753  278           
09 21.08.17 тихо ()   20000 м    8/3 600 м средняя, верхняя 
[Sc|Ac lent|Ci]
+21.9 +11.8 53 +25  1007.8  -0.8  753  279    +23.3       
12 21.08.17 360 (С) 20000 м    3/3 600 м 
[Sc]
+15 +12.9 87 +21  1008.7  0.9  753  285           
15 21.08.17 тихо ()   20000 м    ясно 
+12.3 +11.4 94 +15  1008.6  -0.2  753  288           
18 21.08.17 тихо ()   20000 м    ясно 
+11.2 +10.4 95 +13  1007.6  -1  753  289           
21 21.08.17 060 (СВ) 20000 м    3/0 средняя 
[Ac trans]
+14 +12.2 89 +19  1007.2  -0.4  752  286  +11.1        влажная 
00 22.08.17 080 (В) 20000 м    8/4 600 м средняя, верхняя 
[Sc|Ac As|Ci sp]
+20.6 +13.6 64 +27  1006.6  -0.5  752  279           
03 22.08.17 080 (В) 20000 м    10/10 600 м 
[Sc]
+21.7 +12.8 57 +27  1005.3  -1.3  751  278           
06 22.08.17 060 (СВ) 20000 м    9/3 600 м средняя, верхняя 
[Sc|Ac As|Ci sp]
+22.9 +12.8 53 +28  1004.2  -1.1  750  276           
09 22.08.17 030 (СВ) 20000 м    10/10 600 м 
[Sc]
+18.8 +13 69 +25  1004.8  0.6  751  280    +23.1       
12 22.08.17 110 (В) 20000 м  {дождь}  10/10 600 м кучево-дожд. 
[Cb cap]
+16.3 +13.3 82 +24  1004.9  751  283           
15 22.08.17 020 (С) 20000 м  зарница  10/9 600 м кучево-дожд., средняя 
[Cb cap|Ac und]
+15.5 +12.3 81 +20  1004.4  -0.5  750  284           
18 22.08.17 тихо ()   10 км  слаб. ливневой дождь  10/10 600 м кучево-дожд. 
[Cb cap]
+14.9 +12.6 86 +20  1002.8  -0.5  749  284           
21 22.08.17 010 (С) 4000 м  ливневой дождь  10/10 600 м кучево-дожд. 
[Cb cap]
+14.1 +13.3 95 +21  1003.8  750  285  +14.1      влажная 
00 23.08.17 020 (С) 4000 м  ливневой дождь  10/10 600 м кучево-дожд. 
[Cb cap]
+14.8 +13.7 93 +23  1003.4  -0.3  749  284  +14.1         
03 23.08.17 350 (С) 20000 м  слаб. ливневой дождь  10/10 600 м кучево-дожд. 
[Cb cap]
+16.5 +13.9 85 +24  1002.8  -0.3  749  282           
Время (UTC), дата Ветер
(°,м/с) 
Видим.   Явления Облачность Т
(°С)
Тd
(°С)
f(%) Тe
(°С)
Pmin
(гПа)
dP
(гПа)
Po
(мм)
O2
(г/м3)
Тmin Tmax R s Состояние
почвы

Для получения пояснительной информации подведите курсор к названию столбца.

ПОГОДА Богородское - архив

Всё, что Вы хотите узнать о погоде Богородское - удобно и подробно!

Выберите нужную дату (начиная с 1 января 2015* года) и нажмите кнопку "Найти".
Будут отображены архивные сводки погоды по пункту Богородское, начиная с указанной даты.


Отображать данные в формате CSV (для использования в таблицах Excel)


Внимание! Наш архив погоды предназначен исключительно для личного некоммерческого использования в познавательных целях. Если Вам необходимы официальные справки о состоянии погоды (для производственных, юридических, коммерческих и т.п. целей), обращайтесь в органы Росгидромета.

*Примечание: данная дата относится к архиву по метеостанциям СССР (Россия, СНГ, Балтия).
Архив по метеостанциям Зарубежной Европы и Азии (кроме Китая) хранится 10 дней, по другим регионам земного шара (Китай, Африка, Америка, Австралия, Океания) - 1 день.

Богородское - район местоположения метеостанции


Название, широта, долгота, высота метеостанции:
Богородское 52.4°ш. 140.5°д. 35 м над ур. моря [Российская Федерация]

Дополнительная информация

В oтличие oт бoльшинства пoгoдных сайтoв мы публикуем пoдрoбную метеoинфoрмацию в детальнoм прoфессиoнальнoм фoрмате.

Характеристики температуры и влажнoсти вoздуха измеряются на высoте 2 м в тени вдали oт зданий и деревьев.
Скoрoсть ветра измеряется на высoте 10 м (на урoвне рoста челoвека скoрoсть ветра ниже в 1.5-2 раза). Если метеoстанция нахoдится в гoрoде или в лесу, тo скoрoсть ветра занижена на 2-4 м/с пo сравнению с oткрытым местoм. Скoрoсть ветра над акватoриями крупных рек и oзёр, а также на вершинах хoлмoв на 2-5 м/с выше, чем в oбычных услoвиях.
Атмoсфернoе давление в разных тoчках местнoсти мoжет значительнo oтличаться oт давления на метеoстанции, в зависимoсти oт услoвий рельефа (при пoдъёме на 10 м давление пoнижается примернo на 1 мм рт.ст.).